Location: Arpaise
(41.0333°N, 14.7333°E)
Time: 15:33:35
(UTC+00:00)

Cosmos 2058 Rocket - Pass Details

Date: 05 July 2020
Orbit: 610 x 640 km, 82.5° (Epoch: 10 August)

Event Time Altitude Azimuth Distance (km) Brightness Sun altitude
Rises 19:16:35 0° 345° (NNW) 2,951 7.5 -7.0°
Reaches altitude 10° 19:18:54 10° 339° (NNW) 2,035 6.8 -7.4°
Maximum altitude 19:23:12 45° 268° (W) 871 4.3 -8.0°
Drops below altitude 10° 19:27:26 10° 196° (SSW) 2,007 5.4 -8.6°
Sets 19:29:43 0° 189° (S) 2,905 6.2 -9.0°
